THA952 LTFM-EKCH

Flight info

Callsign THA952
Flight time 3h 14m
Altitude 36000
Route IBLAX1H/18 IBLAX P727 BGS L622 GONGO DCT KOMAN DCT KARIL DCT KENIN DCT LENOV DCT AMROR DCT ROE M743 TIDVU
Aircraft A21N/M-SDE2E3FGHIRWXY/LB1

Departure

Time 2026-04-26 11:43
Airport İstanbul Airport (LTFM)

Arrival

Time 2026-04-26 14:57
Airport Copenhagen Kastrup Airport (EKCH)
Time Latitude Longitude Altitude Speed Heading
2026-04-26 11:15 41.26745 28.75030 334 ft 0 kts 271°
2026-04-26 11:30 41.26745 28.75037 337 ft 4 kts 272°
2026-04-26 11:31 41.26743 28.75073 335 ft 4 kts 277°
2026-04-26 11:31 41.26739 28.75108 332 ft 4 kts 285°
2026-04-26 11:31 41.26729 28.75140 332 ft 4 kts 310°
2026-04-26 11:31 41.26713 28.75155 333 ft 1 kts 359°
2026-04-26 11:32 41.26708 28.75155 333 ft 0 kts 359°
2026-04-26 11:35 41.26771 28.75153 337 ft 20 kts 359°
2026-04-26 11:35 41.26922 28.75148 336 ft 21 kts
2026-04-26 11:35 41.27068 28.75148 333 ft 21 kts 358°
2026-04-26 11:36 41.27153 28.75180 332 ft 6 kts 71°
2026-04-26 11:36 41.27157 28.75232 334 ft 6 kts 86°
2026-04-26 11:36 41.27158 28.75271 333 ft 0 kts 94°
2026-04-26 11:38 41.27159 28.75312 333 ft 14 kts 82°
2026-04-26 11:38 41.27201 28.75376 334 ft 9 kts
2026-04-26 11:38 41.27340 28.75366 336 ft 26 kts
2026-04-26 11:38 41.27516 28.75362 333 ft 25 kts 359°
2026-04-26 11:39 41.27690 28.75357 336 ft 25 kts 359°
2026-04-26 11:39 41.27863 28.75354 335 ft 25 kts 359°
2026-04-26 11:39 41.28034 28.75350 336 ft 25 kts 359°
2026-04-26 11:39 41.28205 28.75346 336 ft 24 kts 359°
2026-04-26 11:40 41.28375 28.75342 336 ft 24 kts 359°
2026-04-26 11:40 41.28543 28.75338 333 ft 24 kts 359°
2026-04-26 11:40 41.28711 28.75334 334 ft 24 kts 359°
2026-04-26 11:40 41.28878 28.75330 333 ft 24 kts 359°
2026-04-26 11:41 41.28988 28.75378 333 ft 9 kts 77°
2026-04-26 11:42 41.28103 28.75629 335 ft 120 kts 179°
2026-04-26 11:43 41.27084 28.75634 415 ft 161 kts 181°
2026-04-26 11:43 41.25981 28.75650 1049 ft 157 kts 185°
2026-04-26 11:43 41.24874 28.75979 1517 ft 172 kts 152°
2026-04-26 11:43 41.23902 28.76915 2160 ft 178 kts 146°
2026-04-26 11:44 41.22856 28.78000 2534 ft 203 kts 145°
2026-04-26 11:44 41.21651 28.79183 2846 ft 227 kts 146°
2026-04-26 11:44 41.20289 28.80467 3154 ft 257 kts 148°
2026-04-26 11:44 41.18758 28.81833 3715 ft 270 kts 153°
2026-04-26 11:45 41.16963 28.82488 4480 ft 270 kts 181°
2026-04-26 11:45 41.15078 28.82387 5309 ft 273 kts 187°
2026-04-26 11:45 41.13176 28.82179 6228 ft 275 kts 187°
2026-04-26 11:45 41.11262 28.81983 7140 ft 277 kts 187°
2026-04-26 11:46 41.09324 28.81816 8047 ft 280 kts 186°
2026-04-26 11:46 41.07376 28.81668 8935 ft 282 kts 186°
2026-04-26 11:46 41.05405 28.81530 9846 ft 284 kts 186°
2026-04-26 11:46 41.03402 28.81394 10480 ft 295 kts 186°
2026-04-26 11:47 41.01276 28.81251 10785 ft 317 kts 185°
2026-04-26 11:47 40.98998 28.81579 11048 ft 345 kts 165°
2026-04-26 11:47 40.96800 28.83077 11331 ft 370 kts 144°
2026-04-26 11:47 40.95018 28.85648 11708 ft 389 kts 123°
2026-04-26 11:48 40.93726 28.88829 12320 ft 397 kts 116°
2026-04-26 11:48 40.92527 28.92150 13025 ft 402 kts 116°
2026-04-26 11:48 40.91322 28.95503 13704 ft 406 kts 116°
2026-04-26 11:48 40.90096 28.98902 14304 ft 410 kts 116°
2026-04-26 11:49 40.89148 29.02459 14899 ft 413 kts 100°
2026-04-26 11:49 40.89054 29.06253 15500 ft 415 kts 81°
2026-04-26 11:49 40.89853 29.09901 16094 ft 415 kts 63°
2026-04-26 11:49 40.91433 29.13079 16710 ft 414 kts 49°
2026-04-26 11:50 40.93335 29.15954 17311 ft 417 kts 46°
2026-04-26 11:50 40.95291 29.18806 17891 ft 420 kts 46°
2026-04-26 11:50 40.97266 29.21674 18459 ft 423 kts 46°
2026-04-26 11:50 40.99256 29.24559 18941 ft 426 kts 46°
2026-04-26 11:51 41.01265 29.27465 19473 ft 428 kts 46°
2026-04-26 11:51 41.03290 29.30385 19972 ft 431 kts 46°
2026-04-26 11:51 41.05330 29.33321 20444 ft 433 kts 46°
2026-04-26 11:51 41.07379 29.36266 20931 ft 436 kts 46°
2026-04-26 11:52 41.09490 29.39102 21287 ft 440 kts 39°
2026-04-26 11:52 41.11137 29.40764 21575 ft 440 kts 31°
2026-04-26 11:52 41.14863 29.42949 22165 ft 439 kts 11°
2026-04-26 11:52 41.17855 29.43340 22589 ft 439 kts 355°
2026-04-26 11:53 41.20840 29.42566 22987 ft 439 kts 339°
2026-04-26 11:53 41.23534 29.40657 23426 ft 439 kts 322°
2026-04-26 11:53 41.25814 29.37973 23835 ft 440 kts 314°
2026-04-26 11:54 41.29982 29.31951 24598 ft 444 kts 310°
2026-04-26 11:54 41.32002 29.28833 24976 ft 446 kts 310°
2026-04-26 11:54 41.34037 29.25690 25343 ft 448 kts 310°
2026-04-26 11:54 41.36087 29.22555 25699 ft 450 kts 310°
2026-04-26 11:55 41.38160 29.19421 26063 ft 451 kts 311°
2026-04-26 11:55 41.40243 29.16300 26580 ft 448 kts 311°
2026-04-26 11:55 41.42310 29.13220 27151 ft 444 kts 311°
2026-04-26 11:55 41.44369 29.10154 27606 ft 443 kts 311°
2026-04-26 11:56 41.46421 29.07099 28037 ft 442 kts 311°
2026-04-26 11:56 41.48470 29.04046 28472 ft 441 kts 311°
2026-04-26 11:56 41.50509 29.01001 28904 ft 439 kts 311°
2026-04-26 11:56 41.52515 28.98003 29320 ft 438 kts 311°
2026-04-26 11:57 41.54543 28.94966 29745 ft 436 kts 311°
2026-04-26 11:57 41.56552 28.91955 30185 ft 434 kts 311°
2026-04-26 11:57 41.58555 28.88949 30531 ft 432 kts 311°
2026-04-26 11:57 41.60553 28.85945 30839 ft 431 kts 311°
2026-04-26 11:58 41.62542 28.82951 31149 ft 430 kts 311°
2026-04-26 11:58 41.64527 28.79960 31455 ft 429 kts 311°
2026-04-26 11:58 41.66509 28.76970 31745 ft 428 kts 311°
2026-04-26 11:58 41.68458 28.74027 32028 ft 427 kts 311°
2026-04-26 11:59 41.70428 28.71050 32337 ft 425 kts 311°
2026-04-26 11:59 41.72384 28.68090 32641 ft 424 kts 311°
2026-04-26 11:59 41.74345 28.65121 32876 ft 423 kts 311°
2026-04-26 11:59 41.76291 28.62171 33132 ft 423 kts 311°
2026-04-26 12:00 41.78242 28.59212 33391 ft 422 kts 310°
2026-04-26 12:00 41.80182 28.56265 33624 ft 421 kts 310°
2026-04-26 12:00 41.82115 28.53326 33852 ft 420 kts 310°
2026-04-26 12:00 41.84023 28.50424 34046 ft 420 kts 310°
2026-04-26 12:01 41.85971 28.47456 34246 ft 418 kts 310°
2026-04-26 12:01 41.87869 28.44563 34437 ft 417 kts 310°
2026-04-26 12:01 41.89789 28.41633 34586 ft 417 kts 310°
2026-04-26 12:01 41.91704 28.38708 34757 ft 417 kts 310°
2026-04-26 12:02 41.93431 28.36068 34909 ft 416 kts 310°
2026-04-26 12:02 41.97103 28.30440 35194 ft 415 kts 309°
2026-04-26 12:02 41.98790 28.27496 35323 ft 414 kts 305°
2026-04-26 12:03 42.00460 28.24336 35458 ft 414 kts 304°
2026-04-26 12:03 42.02097 28.21155 35596 ft 413 kts 304°
2026-04-26 12:03 42.03692 28.18007 35712 ft 413 kts 303°
2026-04-26 12:03 42.05302 28.14804 35856 ft 413 kts 303°
2026-04-26 12:04 42.06907 28.11600 35939 ft 413 kts 303°
2026-04-26 12:04 42.10131 28.05164 35952 ft 415 kts 303°
2026-04-26 12:05 42.13357 27.98728 35949 ft 413 kts 303°
2026-04-26 12:05 42.16023 27.93406 35953 ft 412 kts 303°
2026-04-26 12:06 42.19228 27.86996 35948 ft 412 kts 303°
2026-04-26 12:06 42.22884 27.81055 35942 ft 413 kts 316°
2026-04-26 12:07 42.27618 27.76616 35955 ft 416 kts 327°
2026-04-26 12:07 42.32692 27.72816 35944 ft 417 kts 329°
2026-04-26 12:08 42.37828 27.69124 35940 ft 418 kts 329°
2026-04-26 12:08 42.42951 27.65414 35939 ft 417 kts 329°
2026-04-26 12:09 42.48023 27.61699 35939 ft 417 kts 328°
2026-04-26 12:09 42.53128 27.57937 35940 ft 418 kts 328°
2026-04-26 12:10 42.58058 27.54229 35932 ft 417 kts 324°
2026-04-26 12:10 42.62806 27.49811 35933 ft 416 kts 322°
2026-04-26 12:11 42.67508 27.45225 35930 ft 415 kts 321°
2026-04-26 12:11 42.72179 27.40612 35930 ft 415 kts 321°
2026-04-26 12:12 42.76849 27.35994 35929 ft 414 kts 321°
2026-04-26 12:12 42.81515 27.31383 35920 ft 414 kts 321°
2026-04-26 12:13 42.86145 27.26803 35921 ft 414 kts 321°
2026-04-26 12:13 42.90716 27.22274 35912 ft 415 kts 321°
2026-04-26 12:14 42.95413 27.17609 35909 ft 415 kts 321°
2026-04-26 12:14 43.00050 27.12996 35904 ft 415 kts 321°
2026-04-26 12:15 43.04717 27.08345 35925 ft 415 kts 321°
2026-04-26 12:15 43.09379 27.03695 35911 ft 415 kts 321°
2026-04-26 12:16 43.14157 26.99218 35906 ft 416 kts 323°
2026-04-26 12:16 43.19004 26.94862 35907 ft 417 kts 323°
2026-04-26 12:17 43.23857 26.90494 35901 ft 417 kts 323°
2026-04-26 12:17 43.28664 26.86130 35917 ft 417 kts 323°
2026-04-26 12:18 43.33505 26.81710 35908 ft 418 kts 323°
2026-04-26 12:18 43.38350 26.77276 35906 ft 419 kts 323°
2026-04-26 12:19 43.43194 26.72836 35903 ft 419 kts 323°
2026-04-26 12:19 43.48044 26.68383 35905 ft 419 kts 323°
2026-04-26 12:20 43.52894 26.63922 35900 ft 419 kts 324°
2026-04-26 12:20 43.57712 26.59478 35903 ft 420 kts 324°
2026-04-26 12:21 43.62567 26.54994 35901 ft 420 kts 324°
2026-04-26 12:21 43.67414 26.50507 35901 ft 420 kts 324°
2026-04-26 12:22 43.72263 26.46010 35900 ft 420 kts 324°
2026-04-26 12:22 43.77128 26.41488 35903 ft 421 kts 324°
2026-04-26 12:23 43.81992 26.36961 35901 ft 421 kts 324°
2026-04-26 12:23 43.86844 26.32432 35895 ft 420 kts 324°
2026-04-26 12:24 43.91665 26.27926 35898 ft 420 kts 324°
2026-04-26 12:24 43.96513 26.23386 35894 ft 420 kts 324°
2026-04-26 12:25 44.03821 26.16645 35889 ft 420 kts 325°
2026-04-26 12:25 44.08714 26.12189 35886 ft 420 kts 325°
2026-04-26 12:26 44.13413 26.07896 35890 ft 419 kts 325°
2026-04-26 12:26 44.18282 26.03433 35884 ft 419 kts 325°
2026-04-26 12:27 44.23016 25.99080 35887 ft 419 kts 325°
2026-04-26 12:27 44.27880 25.94600 35883 ft 419 kts 325°
2026-04-26 12:28 44.32742 25.90112 35871 ft 419 kts 325°
2026-04-26 12:28 44.37606 25.85613 35875 ft 418 kts 325°
2026-04-26 12:29 44.42436 25.81138 35865 ft 416 kts 325°
2026-04-26 12:30 44.49667 25.74419 35870 ft 416 kts 325°
2026-04-26 12:30 44.54467 25.69948 35870 ft 415 kts 325°
2026-04-26 12:31 44.61684 25.63209 35872 ft 415 kts 325°
2026-04-26 12:31 44.66485 25.58715 35872 ft 413 kts 325°
2026-04-26 12:32 44.71262 25.54234 35870 ft 412 kts 324°
2026-04-26 12:33 44.78382 25.47538 35859 ft 412 kts 324°
2026-04-26 12:33 44.83153 25.43040 35860 ft 413 kts 325°
2026-04-26 12:34 44.87927 25.38530 35865 ft 413 kts 325°
2026-04-26 12:34 44.92698 25.34014 35866 ft 412 kts 324°
2026-04-26 12:35 44.97444 25.29512 35870 ft 410 kts 324°
2026-04-26 12:35 45.02151 25.25038 35877 ft 410 kts 324°
2026-04-26 12:36 45.06890 25.20524 35882 ft 411 kts 324°
2026-04-26 12:36 45.11638 25.15993 35889 ft 411 kts 324°
2026-04-26 12:37 45.16382 25.11457 35876 ft 411 kts 324°
2026-04-26 12:37 45.21100 25.06937 35889 ft 409 kts 324°
2026-04-26 12:38 45.25802 25.02424 35892 ft 406 kts 324°
2026-04-26 12:38 45.30451 24.97950 35907 ft 403 kts 324°
2026-04-26 12:39 45.35091 24.93476 35908 ft 402 kts 324°
2026-04-26 12:39 45.39715 24.89007 35914 ft 402 kts 324°
2026-04-26 12:40 45.44348 24.84523 35920 ft 402 kts 324°
2026-04-26 12:40 45.48966 24.80046 35929 ft 400 kts 323°
2026-04-26 12:41 45.53569 24.75573 35932 ft 400 kts 323°
2026-04-26 12:41 45.58140 24.71120 35947 ft 400 kts 323°
2026-04-26 12:42 45.62738 24.66633 35946 ft 400 kts 323°
2026-04-26 12:42 45.67336 24.62136 35954 ft 400 kts 323°
2026-04-26 12:43 45.71937 24.57629 35957 ft 402 kts 323°
2026-04-26 12:43 45.76549 24.53101 35958 ft 401 kts 322°
2026-04-26 12:44 45.81144 24.48582 35963 ft 400 kts 322°
2026-04-26 12:44 45.85730 24.44060 35968 ft 400 kts 322°
2026-04-26 12:45 45.90318 24.39529 35970 ft 400 kts 322°
2026-04-26 12:45 45.94683 24.35208 35959 ft 401 kts 322°
2026-04-26 12:46 45.98821 24.31105 35959 ft 401 kts 322°
2026-04-26 12:46 46.03406 24.26550 35968 ft 399 kts 322°
2026-04-26 12:47 46.07955 24.22024 35970 ft 397 kts 322°
2026-04-26 12:47 46.12492 24.17497 35981 ft 396 kts 322°
2026-04-26 12:48 46.17029 24.12961 35985 ft 396 kts 322°
2026-04-26 12:48 46.21559 24.08423 35992 ft 396 kts 322°
2026-04-26 12:49 46.26096 24.03869 35992 ft 397 kts 322°
2026-04-26 12:49 46.30626 23.99312 36001 ft 396 kts 322°
2026-04-26 12:50 46.35155 23.94747 36002 ft 397 kts 322°
2026-04-26 12:50 46.39685 23.90172 36000 ft 397 kts 322°
2026-04-26 12:51 46.43448 23.86365 35999 ft 397 kts 322°
2026-04-26 12:51 46.47971 23.81779 36008 ft 397 kts 322°
2026-04-26 12:52 46.52486 23.77192 36012 ft 397 kts 322°
2026-04-26 12:52 46.57016 23.72580 36045 ft 396 kts 322°
2026-04-26 12:53 46.61509 23.67998 36010 ft 394 kts 322°
2026-04-26 12:53 46.65978 23.63428 36019 ft 395 kts 322°
2026-04-26 12:54 46.70481 23.58816 36020 ft 396 kts 322°
2026-04-26 12:54 46.74983 23.54195 36020 ft 396 kts 322°
2026-04-26 12:55 46.79484 23.49566 36022 ft 396 kts 322°
2026-04-26 12:55 46.83982 23.44930 36020 ft 396 kts 322°
2026-04-26 12:56 46.88465 23.40298 36031 ft 390 kts 323°
2026-04-26 12:56 46.92877 23.35734 36039 ft 388 kts 323°
2026-04-26 12:57 46.97199 23.31250 36040 ft 387 kts 323°
2026-04-26 12:57 47.01596 23.26680 36040 ft 387 kts 322°
2026-04-26 12:58 47.08189 23.19809 36045 ft 387 kts 323°
2026-04-26 12:58 47.12576 23.15227 36053 ft 387 kts 323°
2026-04-26 12:59 47.16946 23.10653 36047 ft 384 kts 322°
2026-04-26 12:59 47.21282 23.06106 36055 ft 382 kts 322°
2026-04-26 13:00 47.25587 23.01578 36057 ft 382 kts 322°
2026-04-26 13:00 47.29912 22.97021 36055 ft 382 kts 322°
2026-04-26 13:01 47.34239 22.92455 36060 ft 383 kts 322°
2026-04-26 13:01 47.38578 22.87866 36070 ft 384 kts 322°
2026-04-26 13:02 47.42919 22.83266 36115 ft 384 kts 322°
2026-04-26 13:02 47.47232 22.78688 36073 ft 380 kts 322°
2026-04-26 13:03 47.51522 22.74123 36073 ft 379 kts 322°
2026-04-26 13:03 47.55782 22.69579 36071 ft 379 kts 322°
2026-04-26 13:04 47.60061 22.65006 36074 ft 379 kts 322°
2026-04-26 13:04 47.64341 22.60423 36076 ft 379 kts 322°
2026-04-26 13:05 47.68536 22.55922 36078 ft 379 kts 322°
2026-04-26 13:05 47.72811 22.51326 36107 ft 379 kts 322°
2026-04-26 13:06 47.77054 22.46756 36083 ft 375 kts 322°
2026-04-26 13:06 47.81350 22.42355 36086 ft 378 kts 325°
2026-04-26 13:07 47.85872 22.38278 36092 ft 380 kts 326°
2026-04-26 13:07 47.90397 22.34300 36092 ft 380 kts 326°
2026-04-26 13:08 47.94940 22.30258 36096 ft 380 kts 326°
2026-04-26 13:08 47.99468 22.26181 36099 ft 380 kts 326°
2026-04-26 13:09 48.03988 22.22091 36097 ft 379 kts 325°
2026-04-26 13:09 48.08506 22.17993 36104 ft 381 kts 325°
2026-04-26 13:10 48.13037 22.13876 36107 ft 381 kts 325°
2026-04-26 13:10 48.17564 22.09755 36112 ft 381 kts 325°
2026-04-26 13:11 48.22068 22.05648 36111 ft 381 kts 325°
2026-04-26 13:11 48.26598 22.01508 36110 ft 381 kts 325°
2026-04-26 13:12 48.31115 21.97371 36114 ft 378 kts 325°
2026-04-26 13:12 48.35601 21.93256 36116 ft 377 kts 325°
2026-04-26 13:13 48.40079 21.89136 36121 ft 377 kts 325°
2026-04-26 13:13 48.44557 21.85007 36122 ft 377 kts 325°
2026-04-26 13:14 48.49034 21.80871 36122 ft 377 kts 325°
2026-04-26 13:14 48.53505 21.76731 36128 ft 377 kts 325°
2026-04-26 13:15 48.57777 21.72769 36131 ft 376 kts 325°
2026-04-26 13:15 48.61505 21.69306 36124 ft 375 kts 325°
2026-04-26 13:16 48.66689 21.64477 36129 ft 375 kts 325°
2026-04-26 13:16 48.71127 21.60334 36129 ft 375 kts 325°
2026-04-26 13:17 48.77781 21.54105 36132 ft 375 kts 325°
2026-04-26 13:18 48.84429 21.47864 36133 ft 375 kts 325°
2026-04-26 13:19 48.91049 21.41630 36125 ft 375 kts 324°
2026-04-26 13:19 48.95479 21.37446 36138 ft 374 kts 324°
2026-04-26 13:20 48.99902 21.33260 36134 ft 375 kts 324°
2026-04-26 13:20 49.04330 21.29061 36136 ft 375 kts 324°
2026-04-26 13:21 49.08758 21.24853 36124 ft 375 kts 324°
2026-04-26 13:21 49.13180 21.20641 36118 ft 375 kts 324°
2026-04-26 13:22 49.17626 21.16396 36121 ft 378 kts 324°
2026-04-26 13:22 49.22084 21.12133 36120 ft 378 kts 324°
2026-04-26 13:23 49.26546 21.07858 36118 ft 378 kts 324°
2026-04-26 13:23 49.31001 21.03579 36119 ft 378 kts 324°
2026-04-26 13:24 49.35475 20.99325 36119 ft 378 kts 325°
2026-04-26 13:24 49.39990 20.95167 36090 ft 379 kts 325°
2026-04-26 13:25 49.44525 20.91010 36123 ft 379 kts 326°
2026-04-26 13:25 49.49049 20.86847 36125 ft 378 kts 325°
2026-04-26 13:26 49.53487 20.82743 36126 ft 378 kts 325°
2026-04-26 13:26 49.57992 20.78564 36125 ft 378 kts 325°
2026-04-26 13:27 49.62500 20.74374 36127 ft 378 kts 325°
2026-04-26 13:27 49.67002 20.70180 36130 ft 378 kts 325°
2026-04-26 13:28 49.71513 20.65968 36170 ft 379 kts 325°
2026-04-26 13:28 49.76007 20.61766 36133 ft 376 kts 325°
2026-04-26 13:29 49.80470 20.57582 36136 ft 375 kts 325°
2026-04-26 13:29 49.84932 20.53388 36141 ft 375 kts 325°
2026-04-26 13:30 49.89368 20.49211 36143 ft 375 kts 325°
2026-04-26 13:30 49.93683 20.45139 36141 ft 375 kts 325°
2026-04-26 13:31 49.98141 20.40922 36154 ft 376 kts 325°
2026-04-26 13:31 50.02611 20.36686 36149 ft 375 kts 325°
2026-04-26 13:32 50.07025 20.32494 36151 ft 373 kts 325°
2026-04-26 13:32 50.11462 20.28271 36160 ft 373 kts 325°
2026-04-26 13:33 50.15895 20.24040 36163 ft 373 kts 325°
2026-04-26 13:33 50.20326 20.19803 36171 ft 373 kts 325°
2026-04-26 13:34 50.24728 20.15585 36141 ft 373 kts 325°
2026-04-26 13:34 50.29172 20.11315 36199 ft 376 kts 325°
2026-04-26 13:35 50.33620 20.07035 36180 ft 374 kts 325°
2026-04-26 13:35 50.38051 20.02761 36177 ft 374 kts 325°
2026-04-26 13:36 50.41729 19.99206 36188 ft 374 kts 325°
2026-04-26 13:36 50.46154 19.94920 36187 ft 374 kts 325°
2026-04-26 13:37 50.50576 19.90626 36186 ft 374 kts 325°
2026-04-26 13:37 50.55002 19.86320 36190 ft 374 kts 325°
2026-04-26 13:38 50.59445 19.81987 36203 ft 375 kts 325°
2026-04-26 13:38 50.63863 19.77670 36194 ft 373 kts 325°
2026-04-26 13:39 50.68275 19.73350 36205 ft 373 kts 325°
2026-04-26 13:39 50.72680 19.69025 36206 ft 373 kts 325°
2026-04-26 13:40 50.77053 19.64722 36219 ft 373 kts 325°
2026-04-26 13:40 50.81447 19.60389 36216 ft 373 kts 325°
2026-04-26 13:41 50.85859 19.56027 36217 ft 375 kts 324°
2026-04-26 13:41 50.90285 19.51641 36224 ft 374 kts 325°
2026-04-26 13:42 50.94684 19.47277 36218 ft 372 kts 324°
2026-04-26 13:42 50.99073 19.42910 36221 ft 372 kts 324°
2026-04-26 13:43 51.03459 19.38536 36215 ft 372 kts 324°
2026-04-26 13:43 51.07847 19.34149 36226 ft 372 kts 324°
2026-04-26 13:44 51.12227 19.29762 36207 ft 372 kts 324°
2026-04-26 13:44 51.16632 19.25336 36268 ft 376 kts 324°
2026-04-26 13:45 51.21047 19.20894 36215 ft 374 kts 324°
2026-04-26 13:45 51.25445 19.16459 36226 ft 373 kts 324°
2026-04-26 13:46 51.29833 19.12023 36227 ft 373 kts 324°
2026-04-26 13:46 51.34213 19.07583 36222 ft 373 kts 324°
2026-04-26 13:47 51.38594 19.03133 36220 ft 373 kts 324°
2026-04-26 13:47 51.42947 18.98702 36217 ft 373 kts 324°
2026-04-26 13:48 51.47326 18.94233 36240 ft 372 kts 324°
2026-04-26 13:48 51.51686 18.89774 36224 ft 370 kts 324°
2026-04-26 13:49 51.56030 18.85322 36221 ft 370 kts 324°
2026-04-26 13:49 51.60361 18.80871 36224 ft 370 kts 324°
2026-04-26 13:50 51.64697 18.76405 36220 ft 370 kts 324°
2026-04-26 13:50 51.69031 18.71932 36219 ft 370 kts 324°
2026-04-26 13:51 51.73369 18.67442 36231 ft 372 kts 324°
2026-04-26 13:51 51.77739 18.62910 36224 ft 373 kts 324°
2026-04-26 13:52 51.82062 18.58418 36225 ft 371 kts 324°
2026-04-26 13:52 51.86405 18.53895 36224 ft 371 kts 324°
2026-04-26 13:53 51.90748 18.49359 36225 ft 371 kts 324°
2026-04-26 13:53 51.95082 18.44823 36228 ft 371 kts 324°
2026-04-26 13:54 51.99391 18.40302 36229 ft 371 kts 324°
2026-04-26 13:54 52.03741 18.35726 36227 ft 374 kts 324°
2026-04-26 13:55 52.09560 18.29591 36229 ft 375 kts 324°
2026-04-26 13:56 52.16856 18.21872 36222 ft 375 kts 324°
2026-04-26 13:56 52.21224 18.17235 36226 ft 375 kts 324°
2026-04-26 13:57 52.25540 18.12643 36224 ft 375 kts 323°
2026-04-26 13:57 52.29905 18.07987 36203 ft 375 kts 323°
2026-04-26 13:58 52.34289 18.03297 36229 ft 378 kts 323°
2026-04-26 13:58 52.38686 17.98585 36229 ft 376 kts 323°
2026-04-26 13:59 52.43029 17.93922 36238 ft 375 kts 323°
2026-04-26 13:59 52.47387 17.89229 36240 ft 375 kts 323°
2026-04-26 14:00 52.56104 17.79803 36236 ft 375 kts 323°
2026-04-26 14:01 52.60454 17.75086 36235 ft 375 kts 323°
2026-04-26 14:01 52.64831 17.70325 36230 ft 378 kts 323°
2026-04-26 14:02 52.69188 17.65576 36240 ft 377 kts 323°
2026-04-26 14:02 52.73555 17.60806 36240 ft 376 kts 323°
2026-04-26 14:03 52.77911 17.56034 36247 ft 376 kts 323°
2026-04-26 14:03 52.82268 17.51251 36245 ft 376 kts 323°
2026-04-26 14:04 52.86618 17.46461 36241 ft 376 kts 323°
2026-04-26 14:04 52.90971 17.41657 36259 ft 377 kts 323°
2026-04-26 14:05 52.95344 17.36818 36254 ft 379 kts 323°
2026-04-26 14:05 52.99725 17.31960 36249 ft 377 kts 323°
2026-04-26 14:06 53.04080 17.27119 36259 ft 376 kts 323°
2026-04-26 14:06 53.08431 17.22271 36257 ft 376 kts 323°
2026-04-26 14:07 53.12780 17.17412 36251 ft 376 kts 323°
2026-04-26 14:07 53.17098 17.12576 36257 ft 376 kts 323°
2026-04-26 14:08 53.21450 17.07691 36270 ft 377 kts 323°
2026-04-26 14:08 53.25825 17.02765 36260 ft 380 kts 322°
2026-04-26 14:09 53.30211 16.97818 36266 ft 380 kts 323°
2026-04-26 14:09 53.34580 16.92877 36266 ft 379 kts 323°
2026-04-26 14:10 53.38946 16.87926 36272 ft 379 kts 323°
2026-04-26 14:10 53.43305 16.82968 36274 ft 379 kts 323°
2026-04-26 14:11 53.49675 16.75704 36270 ft 379 kts 323°
2026-04-26 14:11 53.54047 16.70701 36277 ft 382 kts 322°
2026-04-26 14:12 53.58440 16.65663 36272 ft 383 kts 322°
2026-04-26 14:12 53.62806 16.60644 36284 ft 381 kts 323°
2026-04-26 14:13 53.69369 16.53074 36281 ft 381 kts 322°
2026-04-26 14:14 53.73746 16.48008 36284 ft 381 kts 322°
2026-04-26 14:14 53.78120 16.42933 36293 ft 381 kts 322°
2026-04-26 14:15 53.82494 16.37844 36290 ft 383 kts 322°
2026-04-26 14:15 53.86898 16.32707 36296 ft 385 kts 322°
2026-04-26 14:16 53.91318 16.27540 36308 ft 385 kts 322°
2026-04-26 14:16 53.95698 16.22406 36297 ft 384 kts 322°
2026-04-26 14:17 54.00089 16.17246 36304 ft 384 kts 322°
2026-04-26 14:17 54.04488 16.12061 36306 ft 384 kts 322°
2026-04-26 14:18 54.08881 16.06870 36304 ft 384 kts 322°
2026-04-26 14:18 54.13195 16.01759 36298 ft 385 kts 322°
2026-04-26 14:19 54.16850 15.97418 36308 ft 387 kts 322°
2026-04-26 14:19 54.21275 15.92150 36344 ft 387 kts 322°
2026-04-26 14:20 54.25684 15.86889 36303 ft 386 kts 322°
2026-04-26 14:20 54.30075 15.81636 36303 ft 385 kts 322°
2026-04-26 14:21 54.34462 15.76372 36301 ft 385 kts 322°
2026-04-26 14:21 54.38849 15.71094 36303 ft 385 kts 322°
2026-04-26 14:22 54.43231 15.65807 36303 ft 385 kts 322°
2026-04-26 14:22 54.47611 15.60509 36294 ft 385 kts 322°
2026-04-26 14:23 54.51992 15.55197 36296 ft 385 kts 322°
2026-04-26 14:23 54.56123 15.50173 36298 ft 384 kts 322°
2026-04-26 14:24 54.60483 15.44859 36293 ft 383 kts 322°
2026-04-26 14:24 54.64807 15.39574 36292 ft 383 kts 322°
2026-04-26 14:25 54.69160 15.34239 36292 ft 383 kts 322°
2026-04-26 14:25 54.73506 15.28898 36267 ft 384 kts 322°
2026-04-26 14:26 54.77802 15.23603 36288 ft 387 kts 322°
2026-04-26 14:26 54.79919 15.20989 36179 ft 389 kts 322°
2026-04-26 14:26 54.82125 15.18261 35581 ft 390 kts 322°
2026-04-26 14:26 54.84341 15.15518 34833 ft 392 kts 322°
2026-04-26 14:27 54.86560 15.12767 34093 ft 392 kts 322°
2026-04-26 14:27 54.88703 15.09856 33228 ft 391 kts 316°
2026-04-26 14:27 54.90635 15.06516 32332 ft 392 kts 313°
2026-04-26 14:27 54.92490 15.03116 31466 ft 393 kts 313°
2026-04-26 14:28 54.94345 14.99601 30566 ft 394 kts 312°
2026-04-26 14:28 54.96183 14.96056 29561 ft 396 kts 312°
2026-04-26 14:28 54.98029 14.92468 28465 ft 398 kts 312°
2026-04-26 14:28 54.99883 14.88858 27316 ft 401 kts 312°
2026-04-26 14:29 55.01756 14.85215 26095 ft 406 kts 312°
2026-04-26 14:29 55.03651 14.81534 24947 ft 410 kts 312°
2026-04-26 14:29 55.05515 14.77793 24284 ft 404 kts 308°
2026-04-26 14:29 55.07028 14.73802 23801 ft 394 kts 303°
2026-04-26 14:30 55.08375 14.69705 23220 ft 384 kts 301°
2026-04-26 14:30 55.09619 14.65656 22726 ft 373 kts 300°
2026-04-26 14:30 55.10809 14.61626 22234 ft 364 kts 300°
2026-04-26 14:30 55.11939 14.57725 21741 ft 358 kts 300°
2026-04-26 14:31 55.13045 14.53894 21262 ft 358 kts 300°
2026-04-26 14:31 55.14166 14.50014 20774 ft 357 kts 300°
2026-04-26 14:31 55.15287 14.46143 20300 ft 355 kts 300°
2026-04-26 14:31 55.16403 14.42298 19815 ft 353 kts 301°
2026-04-26 14:32 55.17514 14.38471 19324 ft 352 kts 300°
2026-04-26 14:32 55.18624 14.34648 18848 ft 353 kts 300°
2026-04-26 14:32 55.19731 14.30832 18332 ft 351 kts 300°
2026-04-26 14:32 55.20830 14.27036 17814 ft 349 kts 300°
2026-04-26 14:33 55.21922 14.23256 17344 ft 347 kts 300°
2026-04-26 14:33 55.23007 14.19494 16864 ft 345 kts 300°
2026-04-26 14:33 55.24088 14.15742 16374 ft 344 kts 300°
2026-04-26 14:33 55.25160 14.12012 15891 ft 342 kts 300°
2026-04-26 14:34 55.26228 14.08292 15417 ft 341 kts 300°
2026-04-26 14:34 55.27289 14.04592 14961 ft 339 kts 300°
2026-04-26 14:34 55.28348 14.00895 14490 ft 338 kts 300°
2026-04-26 14:34 55.29397 13.97228 13999 ft 336 kts 300°
2026-04-26 14:35 55.30444 13.93562 13501 ft 335 kts 300°
2026-04-26 14:35 55.31486 13.89909 13026 ft 335 kts 299°
2026-04-26 14:35 55.32516 13.86291 12557 ft 334 kts 299°
2026-04-26 14:35 55.33550 13.82652 12091 ft 332 kts 299°
2026-04-26 14:36 55.34579 13.79025 11614 ft 331 kts 299°
2026-04-26 14:36 55.35601 13.75417 11144 ft 329 kts 299°
2026-04-26 14:36 55.36590 13.71914 10997 ft 310 kts 299°
2026-04-26 14:36 55.37517 13.68619 10926 ft 291 kts 299°
2026-04-26 14:37 55.38390 13.65517 10802 ft 275 kts 299°
2026-04-26 14:37 55.39216 13.62581 10675 ft 261 kts 299°
2026-04-26 14:37 55.40002 13.59784 10555 ft 249 kts 300°
2026-04-26 14:37 55.40754 13.57099 10441 ft 240 kts 298°
2026-04-26 14:38 55.41366 13.54374 10334 ft 241 kts 292°
2026-04-26 14:38 55.41862 13.51659 10229 ft 243 kts 291°
2026-04-26 14:38 55.42360 13.48793 9938 ft 243 kts 291°
2026-04-26 14:38 55.42845 13.45977 9716 ft 242 kts 290°
2026-04-26 14:39 55.43333 13.43134 9446 ft 242 kts 290°
2026-04-26 14:39 55.43810 13.40351 9284 ft 231 kts 290°
2026-04-26 14:39 55.44268 13.37675 9158 ft 227 kts 290°
2026-04-26 14:39 55.44696 13.35187 8996 ft 228 kts 290°
2026-04-26 14:40 55.45158 13.32509 8723 ft 227 kts 290°
2026-04-26 14:40 55.45616 13.29843 8459 ft 226 kts 290°
2026-04-26 14:40 55.46122 13.27149 8291 ft 243 kts 296°
2026-04-26 14:40 55.47056 13.24597 8145 ft 252 kts 315°
2026-04-26 14:41 55.48464 13.22851 8020 ft 253 kts 336°
2026-04-26 14:41 55.50168 13.22313 7880 ft 247 kts
2026-04-26 14:41 55.51715 13.23485 7751 ft 248 kts 39°
2026-04-26 14:41 55.52612 13.26111 7634 ft 259 kts 70°
2026-04-26 14:42 55.52801 13.29322 7501 ft 268 kts 94°
2026-04-26 14:42 55.52404 13.32565 7383 ft 272 kts 104°
2026-04-26 14:42 55.51872 13.35770 7253 ft 272 kts 104°
2026-04-26 14:42 55.51336 13.38954 7130 ft 271 kts 104°
2026-04-26 14:43 55.50779 13.42145 7004 ft 278 kts 108°
2026-04-26 14:43 55.49988 13.45358 6875 ft 290 kts 120°
2026-04-26 14:43 55.48625 13.47916 6742 ft 286 kts 151°
2026-04-26 14:43 55.46795 13.48780 6620 ft 264 kts 187°
2026-04-26 14:44 55.45163 13.47752 6486 ft 243 kts 225°
2026-04-26 14:44 55.44222 13.45391 6363 ft 236 kts 251°
2026-04-26 14:44 55.43805 13.42663 6232 ft 235 kts 266°
2026-04-26 14:44 55.43853 13.39829 6098 ft 233 kts 280°
2026-04-26 14:45 55.44216 13.36984 5874 ft 246 kts 287°
2026-04-26 14:45 55.44550 13.35028 5692 ft 247 kts 288°
2026-04-26 14:45 55.45274 13.31241 5345 ft 245 kts 288°
2026-04-26 14:45 55.45623 13.28319 5137 ft 244 kts 274°
2026-04-26 14:46 55.45404 13.25363 5011 ft 247 kts 255°
2026-04-26 14:46 55.44761 13.22540 4870 ft 249 kts 249°
2026-04-26 14:46 55.44026 13.19773 4753 ft 250 kts 248°
2026-04-26 14:46 55.43282 13.17015 4621 ft 250 kts 248°
2026-04-26 14:47 55.42538 13.14243 4484 ft 250 kts 248°
2026-04-26 14:47 55.41802 13.11481 4384 ft 249 kts 248°
2026-04-26 14:47 55.41069 13.08716 4249 ft 249 kts 248°
2026-04-26 14:47 55.40335 13.05946 4120 ft 249 kts 248°
2026-04-26 14:48 55.39583 13.03199 3992 ft 250 kts 244°
2026-04-26 14:48 55.38510 13.00770 3861 ft 255 kts 226°
2026-04-26 14:48 55.37107 12.98829 3730 ft 257 kts 219°
2026-04-26 14:48 55.35637 12.97031 3600 ft 258 kts 218°
2026-04-26 14:49 55.34156 12.95250 3476 ft 258 kts 218°
2026-04-26 14:49 55.32674 12.93465 3368 ft 258 kts 218°
2026-04-26 14:49 55.31385 12.91363 3309 ft 249 kts 244°
2026-04-26 14:49 55.31000 12.88513 3316 ft 240 kts 277°
2026-04-26 14:50 55.31433 12.85751 3195 ft 240 kts 298°
2026-04-26 14:50 55.32359 12.83326 3013 ft 239 kts 308°
2026-04-26 14:50 55.33399 12.81031 2876 ft 240 kts 309°
2026-04-26 14:50 55.34526 12.78895 2743 ft 239 kts 313°
2026-04-26 14:51 55.35701 12.76784 2608 ft 242 kts 314°
2026-04-26 14:51 55.36890 12.74676 2476 ft 242 kts 314°
2026-04-26 14:51 55.38083 12.72583 2347 ft 242 kts 314°
2026-04-26 14:51 55.39278 12.70496 2221 ft 241 kts 315°
2026-04-26 14:52 55.40471 12.68420 2089 ft 241 kts 315°
2026-04-26 14:52 55.41663 12.66344 2015 ft 240 kts 315°
2026-04-26 14:52 55.42805 12.64360 2009 ft 220 kts 315°
2026-04-26 14:52 55.43858 12.62528 2024 ft 205 kts 315°
2026-04-26 14:53 55.44832 12.60835 2035 ft 193 kts 315°
2026-04-26 14:53 55.45783 12.59175 2016 ft 193 kts 314°
2026-04-26 14:53 55.46725 12.57533 2011 ft 193 kts 315°
2026-04-26 14:53 55.47681 12.55866 2012 ft 193 kts 315°
2026-04-26 14:54 55.48636 12.54199 2012 ft 192 kts 315°
2026-04-26 14:54 55.49587 12.52539 2012 ft 192 kts 315°
2026-04-26 14:54 55.50539 12.50893 2013 ft 192 kts 317°
2026-04-26 14:54 55.51736 12.49951 2001 ft 195 kts 357°
2026-04-26 14:55 55.53041 12.50659 1766 ft 203 kts 31°
2026-04-26 14:55 55.54067 12.52330 1466 ft 196 kts 43°
2026-04-26 14:55 55.55019 12.53928 1143 ft 180 kts 36°
2026-04-26 14:55 55.55936 12.55278 910 ft 164 kts 37°
2026-04-26 14:56 55.56769 12.56582 699 ft 158 kts 38°
2026-04-26 14:56 55.57598 12.57863 455 ft 158 kts 36°
2026-04-26 14:56 55.58438 12.59134 297 ft 159 kts 36°
2026-04-26 14:56 55.59264 12.60408 101 ft 152 kts 36°
2026-04-26 14:57 55.60003 12.61565 29 ft 130 kts 40°
2026-04-26 14:57 55.60598 12.62475 30 ft 98 kts 41°
2026-04-26 14:57 55.61045 12.63170 30 ft 74 kts 41°
2026-04-26 14:57 55.61342 12.63629 29 ft 48 kts 41°
2026-04-26 14:58 55.61583 12.63955 29 ft 33 kts
2026-04-26 14:58 55.61724 12.63939 28 ft 0 kts 357°
2026-04-26 14:58 55.61727 12.63939 28 ft 1 kts 357°
2026-04-26 14:58 55.61742 12.63937 27 ft 3 kts 357°
2026-04-26 14:59 55.61776 12.63938 27 ft 6 kts
2026-04-26 14:59 55.61860 12.64038 27 ft 17 kts 38°
2026-04-26 14:59 55.61962 12.64149 27 ft 17 kts 25°
2026-04-26 14:59 55.62036 12.64211 27 ft 18 kts 24°
2026-04-26 15:00 55.62195 12.64336 26 ft 20 kts 24°
2026-04-26 15:00 55.62268 12.64421 27 ft 6 kts 69°
2026-04-26 15:00 55.62282 12.64491 29 ft 7 kts 71°
2026-04-26 15:00 55.62301 12.64592 27 ft 9 kts 71°
2026-04-26 15:01 55.62324 12.64703 27 ft 10 kts 69°
2026-04-26 15:01 55.62336 12.64753 27 ft 0 kts 63°
2026-04-26 15:01 55.62367 12.64780 27 ft 10 kts
2026-04-26 15:01 55.62432 12.64781 27 ft 11 kts 359°
2026-04-26 15:02 55.62506 12.64777 27 ft 12 kts 358°
2026-04-26 15:02 55.62590 12.64776 27 ft 8 kts 15°
2026-04-26 15:02 55.62608 12.64853 27 ft 17 kts 89°
2026-04-26 15:02 55.62608 12.64871 27 ft 0 kts 89°